Weather History for Hot Springs, VA

Change the Weather History Date:

Sunday, January 11, 2015

  Actual Average Record
Temperature  
Mean Temperature 30 °F -  
Max Temperature 41 °F 33 °F 51 °F (2006)
Min Temperature 20 °F 19 °F -4 °F (1997)
Degree Days  
Heating Degree Days 34    
Moisture  
Dew Point 0 °F    
Average Humidity 30    
Maximum Humidity 100    
Minimum Humidity 11    
Precipitation  
Precipitation 0.01 in - - ()
Sea Level Pressure  
Sea Level Pressure 30.37 in    
Wind  
Wind Speed 11 mph (WSW)    
Max Wind Speed 20 mph    
Max Gust Speed 30 mph    
Visibility 10 miles    
Events Rain    
Averages and records for this station are not official NWS values.
T = Trace of Precipitation, MM = Missing Value Source: NWS Daily Summary

Daily Weather History Graph

Daily Weather History Graph

Search for Another Location

Airport:

Trip Planner

Search our weather history database for the weather conditions in past years. The results will help you decide how hot, cold, wet, or windy it might be!

Date:

Astronomy

Jan. 11, 2015 Rise Set
Actual Time 7:35 AM EST 5:19 PM EST
Civil Twilight 7:06 AM EST 5:48 PM EST
Nautical Twilight 6:33 AM EST 6:21 PM EST
Astronomical Twilight 6:01 AM EST 6:52 PM EST
Moon 11:35 PM EST (1/11) 10:55 AM EST (1/11)
Length of Visible Light 10h 42m
Length of Day
9h 44m
Waning Gibbous, 66% of the Moon is Illuminated
Jan 11
Waning Gibbous
Jan 13
Last Quarter
Jan 20
New
Jan 26
First Quarter
Feb 3
Full

Hourly Weather History & Observations

Time (EST) Temp. Windchill Dew Point Humidity Pressure Visibility Wind Dir Wind Speed Gust Speed Precip Events Conditions
12:15 AM 20.7 °F 7.6 °F -3.8 °F 34% 30.32 in 10.0 mi WSW 13.8 mph - N/A   Clear
12:55 AM 21.2 °F 8.3 °F -4.2 °F 33% 30.32 in 10.0 mi WSW 13.8 mph - N/A   Clear
1:15 AM 21.4 °F 8.0 °F -3.8 °F 33% 30.32 in 10.0 mi West 15.0 mph - N/A   Clear
1:35 AM 21.6 °F 8.2 °F -3.8 °F 33% 30.32 in 10.0 mi WSW 15.0 mph - N/A   Clear
1:55 AM 22.1 °F 8.9 °F -3.8 °F 32% 30.33 in 10.0 mi WSW 15.0 mph - N/A   Clear
2:15 AM 22.6 °F 9.6 °F -3.3 °F 32% 30.34 in 10.0 mi WSW 15.0 mph - N/A   Clear
2:35 AM 22.3 °F 8.7 °F -2.7 °F 33% 30.34 in 10.0 mi WSW 16.1 mph - N/A   Clear
2:55 AM 22.6 °F 9.2 °F -3.1 °F 32% 30.34 in 10.0 mi WSW 16.1 mph - N/A   Clear
3:15 AM 22.5 °F 9.4 °F -3.1 °F 33% 30.34 in 10.0 mi WSW 15.0 mph - N/A   Clear
3:35 AM 22.8 °F 9.9 °F -3.8 °F 31% 30.35 in 10.0 mi West 15.0 mph - N/A   Clear
3:55 AM 23.0 °F 10.6 °F -4.0 °F 31% 30.35 in 10.0 mi West 13.8 mph - N/A   Clear
4:15 AM 23.0 °F 10.6 °F -3.6 °F 31% 30.35 in 10.0 mi West 13.8 mph - N/A   Clear
4:35 AM 23.4 °F 11.6 °F -5.1 °F 29% 30.35 in 10.0 mi West 12.7 mph - N/A   Clear
4:55 AM 23.7 °F 12.6 °F -5.8 °F 27% 30.35 in 10.0 mi West 11.5 mph - N/A   Clear
5:15 AM 25.2 °F 13.9 °F -8.9 °F 22% 30.35 in 10.0 mi West 12.7 mph - N/A   Clear
5:35 AM 25.2 °F 13.9 °F -9.6 °F 22% 30.35 in 10.0 mi West 12.7 mph - N/A   Clear
5:55 AM 25.5 °F 13.8 °F -10.1 °F 21% 30.36 in 10.0 mi West 13.8 mph - N/A   Clear
6:15 AM 25.9 °F 14.3 °F -10.3 °F 20% 30.36 in 10.0 mi West 13.8 mph - N/A   Clear
6:35 AM 25.7 °F 15.1 °F -9.9 °F 21% 30.36 in 10.0 mi West 11.5 mph - N/A   Clear
6:55 AM 25.0 °F 14.8 °F -8.9 °F 22% 30.37 in 10.0 mi West 10.4 mph - N/A   Clear
7:15 AM 24.8 °F 14.6 °F -9.2 °F 22% 30.37 in 10.0 mi West 10.4 mph - N/A   Clear
7:35 AM 26.1 °F 16.2 °F -11.2 °F 19% 30.38 in 10.0 mi West 10.4 mph - N/A   Clear
7:55 AM 27.5 °F 18.0 °F -12.1 °F 17% 30.38 in 10.0 mi West 10.4 mph - N/A   Clear
8:15 AM 29.3 °F 20.8 °F -11.6 °F 17% 30.39 in 10.0 mi West 9.2 mph - N/A   Clear
8:35 AM 30.6 °F 21.8 °F -11.7 °F 16% 30.39 in 10.0 mi West 10.4 mph - N/A   Clear
8:55 AM 32.0 °F 23.6 °F -11.2 °F 15% 30.40 in 10.0 mi WSW 10.4 mph - N/A   Clear
9:15 AM 32.4 °F 23.5 °F -11.9 °F 14% 30.41 in 10.0 mi WSW 11.5 mph - N/A   Clear
9:35 AM 32.7 °F 23.9 °F -10.3 °F 15% 30.41 in 10.0 mi WSW 11.5 mph - N/A   Clear
9:55 AM 34.0 °F 26.0 °F -11.2 °F 14% 30.42 in 10.0 mi WSW 10.4 mph - N/A   Clear
10:15 AM 35.8 °F 27.8 °F -12.5 °F 12% 30.42 in 10.0 mi WSW 11.5 mph - N/A   Clear
10:35 AM 37.0 °F 29.3 °F -12.6 °F 12% 30.42 in 10.0 mi WSW 11.5 mph 17.3 mph N/A   Clear
10:55 AM 36.5 °F 29.2 °F -11.7 °F 12% 30.41 in 10.0 mi WSW 10.4 mph - N/A   Clear
11:15 AM 38.3 °F 31.4 °F -11.9 °F 11% 30.40 in 10.0 mi SW 10.4 mph - N/A   Scattered Clouds
11:35 AM 37.4 °F 30.3 °F -9.2 °F 13% 30.39 in 10.0 mi WSW 10.4 mph - N/A   Scattered Clouds
11:55 AM 37.0 °F 31.6 °F -10.5 °F 13% 30.38 in 10.0 mi SW 6.9 mph - N/A   Mostly Cloudy
12:15 PM 36.9 °F 30.1 °F -4.4 °F 17% 30.37 in 10.0 mi West 9.2 mph - N/A   Overcast
12:35 PM 38.5 °F 31.1 °F -11.0 °F 12% 30.37 in 10.0 mi WSW 11.5 mph - N/A   Scattered Clouds
12:55 PM 39.0 °F 32.8 °F -9.9 °F 12% 30.36 in 10.0 mi WSW 9.2 mph - N/A   Scattered Clouds
1:15 PM 39.9 °F 34.5 °F -8.5 °F 13% 30.36 in 10.0 mi SW 8.1 mph - N/A   Scattered Clouds
1:35 PM 41.0 °F 35.2 °F -8.1 °F 12% 30.36 in 10.0 mi West 9.2 mph - N/A   Clear
1:55 PM 41.4 °F 37.6 °F -6.9 °F 13% 30.36 in 10.0 mi WSW 5.8 mph - N/A   Clear
2:15 PM 41.5 °F 35.4 °F -6.2 °F 13% 30.36 in 10.0 mi West 10.4 mph - N/A   Scattered Clouds
2:35 PM 41.7 °F 36.7 °F -5.1 °F 14% 30.35 in 10.0 mi WSW 8.1 mph - N/A   Scattered Clouds
2:55 PM 39.9 °F 35.8 °F 4.8 °F 23% 30.35 in 10.0 mi SSE 5.8 mph - N/A   Clear
3:15 PM 37.9 °F 35.5 °F 1.4 °F 22% 30.36 in 10.0 mi SSW 3.5 mph - N/A   Scattered Clouds
3:35 PM 38.5 °F 34.1 °F -4.0 °F 16% 30.35 in 10.0 mi SSW 5.8 mph - N/A   Mostly Cloudy
3:55 PM 39.4 °F 37.2 °F -4.4 °F 16% 30.35 in 10.0 mi SW 3.5 mph - N/A   Overcast
4:15 PM 38.3 °F - -2.4 °F 18% 30.36 in 10.0 mi Calm Calm - N/A   Overcast
4:35 PM 38.3 °F - -2.4 °F 18% 30.36 in 10.0 mi Calm Calm - N/A   Overcast
4:55 PM 38.3 °F - -0.9 °F 19% 30.36 in 10.0 mi Calm Calm - N/A   Overcast
5:15 PM 37.4 °F - -0.6 °F 20% 30.37 in 10.0 mi Calm Calm - N/A   Overcast
5:35 PM 37.6 °F 35.1 °F -2.0 °F 19% 30.37 in 10.0 mi SW 3.5 mph - N/A   Overcast
5:55 PM 37.9 °F 34.4 °F -0.9 °F 19% 30.37 in 10.0 mi SW 4.6 mph - N/A   Overcast
6:15 PM 36.5 °F - 1.8 °F 23% 30.37 in 10.0 mi Calm Calm - N/A   Mostly Cloudy
6:35 PM 35.8 °F - 5.9 °F 29% 30.37 in 10.0 mi Calm Calm - N/A   Mostly Cloudy
6:55 PM 34.9 °F - 9.9 °F 35% 30.38 in 10.0 mi Calm Calm - N/A   Drizzle
7:15 PM 34.5 °F - 14.4 °F 44% 30.38 in 10.0 mi Calm Calm - N/A   Light Drizzle
7:35 PM 31.3 °F - 14.0 °F 49% 30.38 in 10.0 mi Calm Calm - N/A   Overcast
7:55 PM 31.1 °F - 16.0 °F 54% 30.38 in 10.0 mi Calm Calm - N/A   Overcast
8:15 PM 30.2 °F - 15.8 °F 55% 30.38 in 10.0 mi Calm Calm - N/A   Overcast
8:35 PM 30.7 °F - 20.5 °F 66% 30.38 in 10.0 mi Calm Calm - N/A   Overcast
8:55 PM 32.5 °F 23.7 °F 20.7 °F 62% 30.38 in 10.0 mi South 11.5 mph - N/A   Overcast
9:15 PM 29.8 °F - 18.7 °F 63% 30.38 in 10.0 mi Calm Calm - N/A   Overcast
9:35 PM 30.7 °F 26.0 °F 17.2 °F 57% 30.37 in 10.0 mi South 4.6 mph - N/A   Overcast
9:55 PM 33.6 °F - 16.2 °F 49% 30.37 in 10.0 mi Calm Calm - N/A   Overcast
10:15 PM 32.2 °F - 16.0 °F 51% 30.37 in 10.0 mi Calm Calm - N/A   Light Drizzle
10:35 PM 32.4 °F 29.1 °F 17.4 °F 54% 30.36 in 10.0 mi South 3.5 mph - N/A   Overcast
10:55 PM 36.1 °F 29.3 °F 27.9 °F 72% 30.35 in 10.0 mi SW 9.2 mph 18.4 mph N/A   Drizzle
11:15 PM 36.5 °F 27.4 °F 31.3 °F 81% 30.35 in 10.0 mi SW 15.0 mph 23.0 mph N/A   Light Drizzle
11:35 PM 35.6 °F 24.8 °F 34.0 °F 94% 30.34 in 5.0 mi SW 19.6 mph 24.2 mph N/A Rain Light Rain
11:55 PM 38.3 °F 28.4 °F 38.3 °F 100% 30.33 in 7.0 mi SW 19.6 mph 29.9 mph 0.01 in Rain Light Rain